Flag for Australia Weather past 2 weeks in Mosman, New South Wales, Australia

Now
64 °F

Mild.


Feels Like: 64 °F
Forecast: 57 / 73 °F
Wind: N/A

Location: Sydney Regional Office

Current Time: Sep 15, 2014 at 8:33:51 PM

Latest Report: Sep 15, 2014 at 6:00 PM


Visibility: N/A

Pressure: 29.98 "Hg

Humidity: 67%

Dew point: 53 °F

Location of MosmanLocation

Historic Weather in Mosman — Graph

°F

Mosman temperature yesterday

Maximum temperature yesterday: 70 °F (at 2:00 PM)
Minimum temperature yesterday: 55 °F (at 6:00 AM)
Average temperature yesterday: 62 °F

Past Weeks' High & Low Weather Summary

 TemperatureHumidityPressure
High77 °F (Sep 11, 2:00 PM)93% (Sep 1, 8:00 AM)30.47 "Hg (Sep 1, 8:00 AM)
Low48 °F (Sep 3, 12:00 AM)26% (Sep 11, 2:00 PM)29.69 "Hg (Sep 10, 3:00 AM)
Average60 °F68%30.09 "Hg
* Reported Aug 31 6:00 PM — Sep 15 6:00 PM, Mosman, Weather by CustomWeather, © 2014

Note: Actual official high and low records may vary slightly from our data, if they occured in-between our weather recording intervals... More about our weather records

Advertising

Mosman weather history for previous 24 hours

 ConditionsComfort  
Time TempWeatherWind HumidityBarometerVisibility
6:00 PM
Sep 15
64 °FMild.N/A67%29.98 "HgN/A
5:00 PM65 °FMild.N/A63%29.97 "HgN/A
3:00 PM67 °FMild.N/A55%29.98 "HgN/A
2:00 PM67 °FMild.N/A55%29.98 "HgN/A
12:00 PM66 °FMild.N/A56%30.02 "HgN/A
11:00 AM67 °FMild.N/A56%30.05 "HgN/A
9:00 AM64 °FMild.N/A68%30.08 "HgN/A
8:00 AM61 °FCool.N/A75%30.09 "HgN/A
6:00 AM56 °FCool.N/A87%30.07 "HgN/A
5:00 AM56 °FCool.N/A87%30.06 "HgN/A
3:00 AM57 °FCool.N/A86%30.06 "HgN/A
2:00 AM58 °FCool.N/A84%30.06 "HgN/A
12:00 AM59 °FCool.N/A81%30.09 "HgN/A
11:00 PM
Sep 14
60 °FCool.N/A81%30.10 "HgN/A
9:00 PM61 °FCool.N/A77%30.10 "HgN/A
8:00 PM62 °FCool.N/A77%30.09 "HgN/A
Weather by CustomWeather, © 2014

See weather overviewHow to use our weather pages